Presure
346 359 334 132 113 302 145 159 154 144 162 135 158 127 132 144 150 119 145 193 157 184 127 195 152 136 121 122 119 138 137 168 172 167 163 161 174 149
358 374 365 345 341 335 269 118 228 165 251 222 163 148 150 143 143 123 139 141 139 132 120 133 118 138 129 118 127 127 143 186 161 140 186 161 188 177
383 488 135 140 153 322 144 337 260 264 137 338 208 138 146 142 148 135 142 164 131 148 126 154 120 151 126 136 109 129 143 135 154 142 160 140 143 141
584 529 497 474 336 132 331 347 333 329 154 324 184 260 156 137 149 130 156 146 133 141 126 153 150 159 188 126 151 128 132 137 133 161 147 122 143 173
518 503 136 135 349 182 339 348 306 301 145 301 144 252 145 184 274 173 135 151 143 167 145 126 150 134 139 126 131 147 159 135 135 168 137 171 146 170
472 469 450 279 429 391 331 327 253 329 326 324 308 147 182 165 137 152 156 195 190 151 146 170 135 156 133 127 152 167 152 137 137 175 170 166 156 176
472 375 440 452 428 409 383 361 314 257 301 297 308 277 139 261 290 247 135 139 142 147 147 142 210 143 125 140 125 136 158 138 157 164 166 155 152 159
342 349 454 449 429 215 395 385 370 361 359 359 356 375 380 371 148 138 141 146 148 143 163 222 162 124 129 125 132 142 142 142 123 166 155 209 167 218
330 350 199 353 427 418 405 387 385 376 373 369 383 321 175 221 164 153 152 293 167 203 245 149 130 154 153 158 147 138 207 191 197 161 218 218 194 227
304 308 142 142 222 317 348 356 346 356 351 362 337 138 144 240 262 253 258 338 132 134 138 198 169 142 139 185 167 193 224 157 198 230 230 234 238 253
265 269 296 148 143 141 270 317 307 323 361 370 340 293 320 153 148 144 143 145 305 148 144 141 236 165 148 153 159 177 226 251 233 240 238 281 282 277
249 254 262 278 299 263 150 151 157 342 322 300 305 309 324 324 343 142 146 352 279 320 325 322 317 296 173 146 165 222 173 201 308 146 296 295 214 278
247 248 248 256 263 288 291 291 237 200 149 217 142 144 253 307 203 202 200 302 304 273 214 317 317 322 321 324 318 320 308 128 241 287 280 271 273 259
228 231 236 241 247 247 252 270 303 242 152 201 148 146 146 145 145 187 231 291 259 278 299 307 300 303 296 289 282 282 282 283 280 273 260 262 257 250
229 227 229 233 224 240 240 249 247 246 266 281 271 286 287 274 276 281 285 285 286 298 310 311 289 296 294 282 274 274 264 265 265 253 246 241 239 235
242 230 229 224 216 232 222 227 235 237 246 240 246 250 254 254 262 272 277 276 275 275 275 273 267 266 263 261 252 251 250 238 238 232 226 225 223 187
218 257 237 237 228 223 236 226 221 222 235 238 233 227 227 230 233 238 237 241 243 245 244 245 244 242 238 236 232 228 231 227 192 221 220 185 210 220
262 274 261 256 243 238 231 231 229 230 228 227 223 228 228 235 232 228 227 227 226 226 233 230 227 225 224 212 223 221 222 216 202 208 197 224 214 225
283 249 250 282 261 261 173 231 216 237 224 221 220 229 219 213 214 212 215 211 219 231 225 221 217 220 230 209 192 194 211 222 221 219 221 187 221 223
238 167 243 288 306 287 267 253 262 244 233 233 229 231 232 225 215 231 232 231 234 221 224 229 233 227 218 223 221 225 227 225 227 236 216 226 242 237
265 259 270 272 277 266 282 299 278 255 243 259 249 239 235 232 233 234 229 222 224 224 222 218 219 229 233 233 234 234 233 221 218 224 235 234 257 265
261 286 282 277 270 267 277 275 293 289 297 281 266 247 252 257 252 238 235 232 230 230 231 230 231 234 232 231 229 224 227 229 233 245 258 267 268 254
264 268 262 254 229 255 274 255 256 264 266 293 287 160 161 268 163 198 234 252 268 269 260 250 243 239 237 237 238 236 238 245 269 269 265 265 261 225
Wind_Speed
94 92 103 60 52 94 64 76 68 67 72 51 67 57 49 46 55 54 55 77 63 67 50 67 61 47 39 41 43 35 44 51 51 50 51 52 54 48
82 91 98 101 98 99 95 55 87 63 115 109 76 55 56 47 48 51 50 50 50 47 51 48 46 49 43 45 48 45 43 57 53 51 54 53 61 57
66 73 57 61 65 95 64 99 86 83 62 91 99 64 51 50 52 49 48 66 49 60 53 63 51 58 48 48 48 48 43 48 51 50 56 53 52 53
42 48 46 59 89 50 88 91 94 92 61 88 72 88 63 52 52 51 51 49 53 58 56 60 62 67 76 51 57 52 52 53 53 62 50 55 59 65
27 25 59 58 74 62 84 85 85 87 59 82 63 79 58 61 127 71 54 55 58 70 53 55 55 57 58 56 54 59 66 58 56 64 58 69 59 66
22 16 23 39 61 77 79 79 71 84 86 87 84 61 68 69 59 55 54 88 88 57 52 67 60 61 56 59 66 69 61 58 59 75 68 68 62 72
21 21 13 28 43 52 67 77 79 72 84 85 83 83 61 85 83 68 57 60 54 55 61 61 97 57 62 61 61 60 68 62 69 69 70 64 63 65
38 37 7 13 32 49 41 44 55 63 64 64 68 63 62 66 63 63 59 60 57 60 57 107 58 62 64 63 64 63 62 65 64 75 67 105 72 108
40 36 28 25 7 22 34 37 44 46 48 55 53 54 58 56 65 62 60 78 62 68 111 59 61 61 62 73 63 65 97 89 94 70 108 109 93 110
41 31 51 50 23 17 11 11 5 12 17 27 33 58 61 51 49 54 60 67 59 63 62 90 78 66 66 86 75 89 105 68 92 109 107 109 106 98
31 30 27 55 55 53 18 11 8 4 6 10 19 22 23 62 64 64 64 64 62 64 64 65 100 70 67 67 69 78 97 107 102 104 103 87 82 78
28 25 27 32 23 11 59 58 56 11 6 1 1 8 14 23 26 66 65 43 54 59 65 71 75 79 71 68 70 76 71 72 74 64 67 67 66 65
28 26 23 19 22 21 15 14 16 36 61 33 61 62 27 11 46 48 51 27 32 43 56 47 51 54 56 56 59 59 57 63 59 57 58 60 59 64
25 24 21 19 16 14 13 18 7 21 68 41 68 67 67 68 68 51 37 19 33 29 31 34 39 40 42 45 49 51 50 48 47 52 58 55 56 59
25 26 24 24 24 16 14 7 5 5 10 3 11 8 9 15 16 21 27 29 27 28 34 32 34 34 33 36 40 42 47 48 48 52 54 59 63 66
34 28 29 30 30 25 27 23 18 14 8 12 9 9 9 12 12 15 18 21 24 27 28 30 32 35 37 39 43 45 43 51 52 56 63 67 70 77
34 39 35 32 34 34 30 32 33 31 23 22 25 30 30 28 27 26 28 27 28 30 32 33 36 39 42 46 51 54 53 57 68 66 68 75 77 81
39 41 40 43 42 39 39 37 38 37 36 33 36 35 35 33 35 37 37 38 40 41 38 42 46 49 53 61 59 59 60 66 70 74 75 74 80 84
40 41 41 46 45 47 48 44 46 44 46 47 47 44 48 51 51 52 51 54 52 48 54 57 59 60 59 66 69 69 72 72 75 78 77 80 81 87
48 53 51 47 43 50 51 50 52 54 52 52 54 54 55 57 58 56 57 58 57 61 60 60 58 62 69 69 73 74 73 75 77 80 80 85 89 88
55 49 51 52 49 49 49 50 59 58 57 60 64 64 63 62 63 63 64 66 67 68 69 70 69 68 69 71 73 77 77 77 80 82 86 89 93 92
57 59 56 56 57 57 56 56 54 54 59 67 66 66 68 72 74 75 74 73 73 73 73 73 73 73 74 75 76 78 82 83 86 90 88 85 85 82
61 61 61 60 52 56 65 58 60 63 63 58 57 60 59 77 57 66 73 78 82 83 86 86 82 81 81 81 82 84 88 82 82 80 80 80 80 77
Wind_Direction
262 258 253 257 268 252 262 264 254 252 261 257 261 262 265 263 265 265 269 264 262 264 269 267 281 282 280 282 286 286 286 277 281 285 288 291 285 291
264 259 256 254 251 251 254 257 252 269 249 250 261 264 263 259 259 262 266 269 270 269 267 274 280 275 276 279 284 281 290 280 284 292 281 290 289 282
275 260 267 265 263 249 263 248 252 249 258 245 251 260 256 256 259 254 261 264 261 269 266 272 278 273 275 280 293 286 288 282 283 289 286 291 289 289
283 260 243 242 245 265 246 245 247 248 257 249 260 253 255 250 262 272 264 257 255 264 266 273 270 272 268 273 285 284 281 282 285 284 289 298 290 287
317 262 268 271 239 259 242 242 245 247 253 248 261 253 256 252 243 262 254 258 258 267 262 276 269 266 269 274 276 280 283 282 285 283 287 288 288 288
334 302 239 253 232 233 241 244 252 248 249 249 246 258 256 259 259 257 257 249 256 260 259 270 262 272 266 271 274 274 280 280 283 282 283 286 288 290
354 287 280 239 231 232 236 240 244 249 248 248 249 246 259 249 248 250 256 265 257 256 256 259 256 263 270 268 278 276 278 279 279 285 288 286 287 290
8 17 287 242 229 256 234 236 237 240 246 251 251 256 249 250 261 263 264 259 259 255 264 251 265 266 268 275 276 273 276 277 290 282 286 281 289 284
17 15 286 31 244 239 240 244 249 248 252 252 254 255 257 257 259 262 263 240 257 252 245 265 264 265 265 270 270 274 272 275 275 286 276 278 282 282
14 15 265 268 285 41 25 283 315 249 249 245 246 262 259 252 249 248 246 235 267 265 260 251 261 268 272 265 270 269 269 282 275 272 275 276 279 278
9 14 13 261 265 267 296 29 33 39 271 253 248 249 235 256 259 263 264 265 242 265 266 267 252 265 270 273 275 271 268 267 271 273 275 273 275 276
344 357 15 16 28 348 262 260 254 17 10 77 211 235 232 235 234 264 266 240 251 244 244 247 250 256 270 272 274 271 278 278 269 286 271 271 280 273
332 338 336 6 17 13 29 54 274 264 260 264 260 261 258 234 259 260 261 239 242 251 263 252 253 255 257 258 261 263 266 287 273 267 268 268 269 271
306 315 318 326 335 329 360 16 11 257 260 260 262 262 262 262 263 262 252 233 256 254 243 243 248 249 250 252 255 258 260 261 262 263 265 267 270 271
286 290 296 299 290 305 308 323 312 309 359 301 245 184 173 195 227 228 220 226 237 247 250 249 247 243 242 245 249 253 257 258 262 267 270 270 271 272
287 276 279 279 270 286 277 283 280 268 263 248 250 244 221 222 233 238 233 234 233 234 236 238 240 240 241 244 252 258 260 264 266 266 269 273 276 281
290 285 277 274 269 271 274 272 267 266 261 252 251 256 254 250 246 243 245 243 243 242 243 247 249 251 253 253 256 261 263 265 276 273 274 279 279 277
287 280 278 276 276 270 263 267 265 265 263 259 258 256 251 246 245 247 249 251 252 253 253 255 256 258 259 264 262 264 266 269 274 274 279 276 278 282
294 289 285 273 271 269 266 265 261 262 259 261 261 257 259 259 259 259 259 259 258 250 252 256 261 260 261 267 270 273 271 269 271 274 275 283 279 280
289 276 286 290 288 272 268 268 267 267 264 261 257 257 255 256 261 256 254 254 256 258 259 258 260 261 263 265 268 269 270 273 275 279 278 280 287 287
293 288 287 284 286 280 278 274 267 265 264 266 266 267 265 263 261 260 257 257 258 259 260 261 263 266 268 270 272 274 274 274 276 279 284 286 292 292
290 292 286 285 281 278 277 275 270 266 267 263 263 262 263 265 265 264 264 264 265 266 266 266 266 267 268 270 272 273 276 277 281 285 289 289 290 292
286 289 285 284 276 283 275 278 278 274 272 273 276 272 273 262 272 268 264 264 265 265 266 267 267 268 270 272 274 275 277 281 285 287 288 290 293 295